Location: Freistadt
(48.5112°N, 14.5013°E)
Time: 20:18:45
(UTC+02:00)

VELOX 1 - Pass Details

Date: 24 February 2024
Orbit: 607 x 620 km, 98.4° (Epoch: 13 April)

Event Time Altitude Azimuth Distance (km) Brightness Sun altitude
Rises 05:42:13 0° 130° (SE) 2,886 ? -12.7°
Reaches altitude 10° 05:44:42 10° 117° (ESE) 1,983 ? -12.3°
Maximum altitude 05:48:10 24° 63° (ENE) 1,284 ? -11.7°
Drops below altitude 10° 05:51:38 10° 10° (N) 1,987 ? -11.1°
Sets 05:54:07 0° 357° (N) 2,894 ? -10.7°
